Home   Weather   Manitowoc   Past weeks
Flag for USA

Past Weather in Manitowoc, Wisconsin, USA — Yesterday and Last 2 Weeks

Now
52 °F

Passing clouds.


Feels Like: 48 °F
Forecast: 41 / 34 °F
Wind: 10 mph from West

Location: Manitowoc Municipal

Current Time: Apr 8, 2020 at 7:58:18 pm

Latest Report: Apr 8, 2020 at 6:56 pm


Visibility: 10 mi

Pressure: 29.62 "Hg

Humidity: 69%

Dew Point: 42 °F

Location of ManitowocLocation

Past Weather in Manitowoc — Graph

°F

Manitowoc Temperature Yesterday

Maximum temperature yesterday: 60 °F (at 1:56 pm)
Minimum temperature yesterday: 41 °F (at 12:56 am)
Average temperature yesterday: 49 °F

High & Low Weather Summary for the Past Weeks

 TemperatureHumidityPressure
High60 °F (Apr 7, 1:56 pm)100% (Mar 24, 9:25 pm)30.28 "Hg (Mar 24, 9:25 pm)
Low28 °F (Mar 25, 1:56 am)44% (Apr 3, 5:56 pm)29.32 "Hg (Mar 29, 6:14 am)
Average40 °F88%29.94 "Hg
* Reported Mar 24 6:56 pm — Apr 8 6:56 pm, Manitowoc. Weather by CustomWeather, © 2020

Note: Actual official high and low records may vary slightly from our data, if they occured in-between our weather recording intervals... More about our weather records

Manitowoc Weather History for the Previous 24 Hours

Scroll right to see more
 ConditionsComfort  
Time TempWeatherWind HumidityBarometerVisibility
6:56 pm
Wed, Apr 8
52 °FPassing clouds.10 mph69%29.62 "Hg10 mi
5:56 pm51 °FScattered clouds.12 mph74%29.64 "Hg10 mi
4:56 pm52 °FLight rain. Mostly cloudy.15 mph77%29.66 "Hg10 mi
3:56 pm57 °FLight rain. Overcast.15 mph51%29.70 "Hg10 mi
2:56 pm59 °FLight rain. Overcast.12 mph51%29.70 "Hg10 mi
1:56 pm56 °FPartly sunny.8 mph75%29.72 "Hg10 mi
12:56 pm53 °FSunny.8 mph83%29.72 "Hg10 mi
11:56 am57 °FSunny.7 mph78%29.74 "Hg10 mi
11:29 am54 °FScattered clouds.No wind82%29.74 "Hg10 mi
10:56 am52 °FLow clouds.7 mph89%29.76 "Hg9 mi
10:38 am50 °FLow clouds.6 mph94%29.75 "Hg9 mi
10:09 am48 °FFog.7 mph100%29.76 "Hg5 mi
9:56 am49 °FFog.5 mph97%29.77 "Hg3 mi
9:07 am48 °FFog.No wind100%29.76 "Hg1 mi
8:44 am46 °FFog.No wind100%29.76 "Hg1 mi
7:56 am45 °FLight rain. Fog.3 mph100%29.76 "Hg1 mi
6:56 am44 °FFog.No wind100%29.75 "Hg1 mi
6:22 am45 °FFog.6 mph93%29.73 "Hg0 mi
5:56 am44 °FLight rain. Fog.3 mph96%29.72 "Hg1 mi
4:56 am44 °FLight rain. Fog.5 mph100%29.71 "Hg1 mi
3:56 am44 °FLight rain. Fog.No wind100%29.72 "Hg0 mi
2:56 am43 °FFog.No wind100%29.71 "Hg0 mi
1:56 am43 °FFog.No wind97%29.72 "Hg0 mi
1:18 am43 °FFog.3 mph100%29.71 "Hg0 mi
12:56 am42 °FFog.3 mph100%29.72 "Hg1 mi
12:38 am43 °FFog.No wind100%29.70 "Hg1 mi
12:18 am45 °FFog.No wind93%29.70 "Hg1 mi
11:56 pm
Tue, Apr 7
44 °FFog.3 mph96%29.71 "Hg4 mi
10:56 pm51 °FPassing clouds.No wind92%29.70 "Hg7 mi
9:56 pm52 °FPassing clouds.7 mph89%29.68 "Hg9 mi
9:37 pm54 °FOvercast.12 mph88%29.67 "Hg10 mi
8:56 pm54 °FOvercast.6 mph90%29.67 "Hg8 mi
7:56 pm52 °FOvercast.6 mph83%29.65 "Hg8 mi
Weather by CustomWeather, © 2020

See weather overview

Advertising